User: anonymous   Login
Location: Agadir Mansour Mhndou
(31.2424°N, 8.7730°W)
Time: 03:41:24
(UTC+00:00)
Language:

Cosmos 371 Rocket - Orbit

View from above orbital plane
View from above orbital plane
View from above satellite
View from above satellite

Ground track
Ground track

The orbit data is extracted from the following two-line orbital elements,

1 04579U 70083B   22017.54578076  .00000214  00000-0  50287-4 0  9990
2 04579  74.0027 126.1138 0009171  86.8810 273.3405 14.60576838719287
Epoch (UTC): 17 January 2022 13:05:55
Eccentricity: 0.0009171
inclination: 74.0027°
perigee height: 685 km
apogee height: 698 km
right ascension of ascending node: 126.1138°
argument of perigee: 86.8810°
revolutions per day: 14.60576838
mean anomaly at epoch: 273.3405°
orbit number at epoch: 71928

The dashed part of the orbit path shows where the satellite is in the earth's shadow,  

DLR